SL-14 R/B, 19574

Orbit data source: Space-Track

SL-14 R/B, 19574 is space debris in LEO originally from a launch on Tue, 11 Oct 1988 UTC launched from the Plesetsk Missile And Space Complex (PKMTR). Debris objects in space refer to the collection of defunct objects orbiting the Earth. Examples of debris include non-operational satellites, rocket bodies, and fragments generated from explosions, collisions, or faulty payload assembly.

Loading next visibility...
Identifier
19574, 1988-093B
Orbit
LEO
Last TLE update
1 day ago
Origin
Manufacturer
Yuzhnoe
Mission
Spacecraft
Bus & Motor
S5M, Unknown motor
Mass
1,600 kg wet, 1,600 kg dry
Launch date (UTC)
1988-10-11 (37 years ago)
Launch vehicle
Unknown
Launch site
Plesetsk Missile And Space Complex (PKMTR)
Object type
Payload
Rocket body
Debris
Shape & HBR
Cyl, 2.7 m
Radar Cross Section
7.351 m², Large (>1 m²)

Expand to show TLE details & history

TLE from 1 day ago
0 SL-14 R/B
1 19574U 88093B   25189.76606829  .00000326  00000-0  34878-4 0  9998
2 19574  82.5313 270.9428 0022125 123.1257   0.6177 14.85347166964820
Epoch: 2025-07-08T18:23Z
TLE epoch observation values (Epoch: 2025-07-08T18:23:08.3Z)
Latitude
55.63583°
Longitude
-122.79035°
Altitude
606.306 km
Speed
7.57 km/s
True Right ascension
05h 19m 48s
True Declination
55° 28' 19"
Sunlit
Object was in daylight at epoch
Visualization orbit readout
Latitude
-52.62697°
Longitude
-102.93633°
Altitude
639.051 km
Speed
7.534 km/s
Apparent Right ascension
22h 25m 51s
Apparent Declination
-83° 59' 11"
Sunlit
Object is in daylight
Visualization observer readout
Local Sidereal Time
07:19:02
Azimuth
186.073° SSW
Elevation
-43.887°
Doppler factor
1
Orbital elements
Apogee altitude
624.971 km
Perigee altitude
594.051 km
Semi-major axis
6,987.648 km
Eccentricity
0.00221
Inclination
82.5313°
RAAN
270.9428°
Arg. of periapsis
123.1257°
True anomaly
Unknown
Mean anomaly
0.6177°
Eccentric anomaly
Unknown
Mean motion
3.71575 °/min
Orbital period
96.88 mins
BSTAR
0.000034878
Loading maneuver chart data...
Loading SW <> Apogee altitude chart data...
Loading historical data...
Loading historical data...
Loading historical data...
Loading historical data...
Loading historical data...
Loading historical data...
Loading historical data...
Other satellites on launch #93 in the year 1988 (1988-10-11 UTC)

SL-14 R/B Visibility forecast

Observer location: undefined°, undefined°

Span
Click to sort rows by Start time (UTC) header in descending order
Start Az.
Max El. time (UTC)
Max El. Az.
Max El.
End time (UTC)
End Az.
6 mins2025-07-10 05:31:37.661Z150.759° SSE2025-07-10 05:34:37.661Z95.098° ESE29.36°2025-07-10 05:37:37.661Z33.661° NE
4 mins2025-07-10 07:10:37.661Z255.282° W2025-07-10 07:12:37.661Z288.33° WNW17.41°2025-07-10 07:14:37.661Z320.823° NNW
7 mins2025-07-10 17:17:37.661Z349.152° N2025-07-10 17:20:37.661Z265.191° W44.594°2025-07-10 17:24:37.661Z177.63° S
|